Regional Weather Roundup
Issued by NWS

Home | Current Version | Previous Version | Text Only | Print | Product List | Glossary Off
Versions: 1 2 3 4 5 6 7 8 9 10 11 12 13 14 15 16 17 18 19 20 21 22 23 24 25 26 27 28 29 30 31 32 33 34 35 36 37 38 39 40 41 42 43 44 45 46 47 48 49 50

000
ASUS43 KMKX 300600
RWRWI

WISCONSIN REGIONAL WEATHER ROUNDUP
NATIONAL WEATHER SERVICE MILWAUKEE/SULLIVAN WI
100 AM CDT THU MAR 30 2017

NOTE: "FAIR" INDICATES FEW OR NO CLOUDS BELOW 12,000 FEET WITH NO
SIGNIFICANT WEATHER AND/OR OBSTRUCTIONS TO VISIBILITY.

WIZ001-002-006>008-014>016-023>028-300700-
NORTHWEST WISCONSIN

CITY           SKY/WX    TMP DP  RH WIND       PRES   REMARKS
SUPERIOR ARPT  CLOUDY    33  32  94 NE10G16   30.17S WCI  25
ASHLAND        CLOUDY    31  28  89 CALM      30.15F
6HR MIN TEMP:  30; 6HR MAX TEMP:  35;

HAYWARD        CLOUDY    34  28  79 N6        30.11F WCI  29
6HR MIN TEMP:  34; 6HR MAX TEMP:  48;

SIREN          CLOUDY    37  31  77 CALM      30.10F
CUMBERLAND     CLOUDY    37  32  81 E5        30.09F WCI  34
RICE LAKE      CLOUDY    40  33  76 CALM      30.10F
6HR MIN TEMP:  40; 6HR MAX TEMP:  46;

CHETEK         CLOUDY    39  34  81 E3        30.10F
LADYSMITH      CLOUDY    40  32  73 E3        30.12F
EAU CLAIRE     NOT AVBL
MENOMONIE      DRIZZLE   40  37  92 E13       30.08F WCI  32
NEW RICHMOND   CLOUDY    40  34  78 E9        30.09S WCI  35
OSCEOLA        CLOUDY    42  36  79 E6        30.12F
$$

WIZ003>005-009-010-017-018-300700-
NORTH CENTRAL WISCONSIN

CITY           SKY/WX    TMP DP  RH WIND       PRES   REMARKS
MANITOWISH WTR CLOUDY    37  27  65 SE6       30.13S WCI  33
ARBOR VITAE    CLOUDY    38  27  63 SE10      30.13S WCI  31
WOODRUFF       CLOUDY    38  27  63 SE10      30.13S WCI  31
RHINELANDER    CLOUDY    36  24  62 E8        30.13F WCI  30
6HR MIN TEMP:  36; 6HR MAX TEMP:  44;

EAGLE RIVER    CLOUDY    35  22  59 SE6       30.14F WCI  30
LAND O LAKES   CLOUDY    36  24  60 SE9       30.16F WCI  29
PHILLIPS       CLOUDY    37  27  66 E7        30.11F WCI  32
6HR MIN TEMP:  37; 6HR MAX TEMP:  45;

TOMAHAWK       CLOUDY    36  26  66 E3        30.12F
MEDFORD        CLOUDY    34  29  83 E10       30.10F WCI  26
MERRILL        CLOUDY    36  27  71 E3        30.13F
$$

WIZ029-030-035-036-043>047-300700-
CENTRAL WISCONSIN

CITY           SKY/WX    TMP DP  RH WIND       PRES   REMARKS
WAUSAU         CLOUDY    35  26  69 E8        30.09F WCI  29
6HR MIN TEMP:  34; 6HR MAX TEMP:  42; 6HR PCP: TRACE;

MOSINEE        LGT SNOW  32  32 100 E10       30.12F WCI  24
MARSHFIELD     MIX PCPN  34  32  92 E14       30.07F WCI  25
6HR MIN TEMP:  34; 6HR MAX TEMP:  42; 6HR PCP:  0.05;

STEVENS POINT  MIX PCPN  32  32 100 E7        30.11F WCI  26
WAUPACA        LGT RAIN  36  34  92 NE7       30.12F WCI  30
WAUTOMA        LGT RAIN  35  33  92 NE8       30.09F WCI  29
6HR MIN TEMP:  35; 6HR MAX TEMP:  42;

WISC RAPIDS    FLURRIES  34  34 100 E10       30.09F WCI  26
6HR MIN TEMP:  34; 6HR MAX TEMP:  40; 6HR PCP:  0.29;

CAMP DOUGLAS   NOT AVBL
$$

WIZ011>013-019>022-031-037>040-048>050-300700-
NORTHEAST WISCONSIN

CITY           SKY/WX    TMP DP  RH WIND       PRES   REMARKS
ANTIGO         CLOUDY    33  25  73 E8        30.13F WCI  26
SHAWANO        CLOUDY    37  31  80 NE8       30.15F WCI  30
6HR MIN TEMP:  36; 6HR MAX TEMP:  41;

OCONTO         CLOUDY    34  29  82 NE6       30.16F WCI  29
STURGEON BAY   CLOUDY    34  33  96 NE3       30.13F
6HR MIN TEMP:  34; 6HR MAX TEMP:  38; 6HR PCP:  0.01;

GREEN BAY      LGT RAIN  35  34  96 NE12      30.14F WCI  27
6HR MIN TEMP:  35; 6HR MAX TEMP:  39; 6HR PCP:  0.01;

MANITOWOC      NOT AVBL
APPLETON       LGT RAIN  34  32  93 NE10      30.10F WCI  26
CLINTONVILLE   LGT RAIN  34  32  93 NE6       30.13F WCI  29
OSHKOSH        LGT RAIN  37  32  82 E12       30.09F WCI  29
6HR MIN TEMP:  37; 6HR MAX TEMP:  41; 6HR PCP: TRACE;

$$

WIZ032>034-041-042-053>061-300700-
SOUTHWEST WISCONSIN

CITY           SKY/WX    TMP DP  RH WIND       PRES   REMARKS
LA CROSSE      CLOUDY    40  35  83 E12       30.04F WCI  33
6HR MIN TEMP:  40; 6HR MAX TEMP:  45; 6HR PCP:  0.13;

SPARTA         CLOUDY    37  35  92 E14       30.07S WCI  28
VIROQUA        CLOUDY    36  33  88 E17       30.00F WCI  26
6HR MIN TEMP:  36; 6HR MAX TEMP:  42; 6HR PCP:  0.07;

BOSCOBEL       CLOUDY    40  50 100 NE9       29.99F WCI  34
6HR MIN TEMP:  40; 6HR MAX TEMP:  43; 6HR PCP:  0.19;

PRAIRIE DU CHI CLOUDY    38  38  97 NE8G18    29.98F WCI  33
PLATTEVILLE    CLOUDY    40  40  99 E23G31    29.93F WCI  30
$$

WIZ056-057-062-063-064-067-068-300700-
SOUTH CENTRAL WISCONSIN

CITY           SKY/WX    TMP DP  RH WIND       PRES   REMARKS
REEDSBURG      CLOUDY    36  32  85 NE8G21    30.04F WCI  30
6HR MIN TEMP:  36; 6HR MAX TEMP:  44;

BARABOO/DELLS  CLOUDY    36  31  82 NE15      30.04F WCI  26
LONE ROCK      NOT AVBL
MINERAL POINT  CLOUDY    39  39 100 E22G30    29.95F WCI  29
MADISON        LGT RAIN  37  35  92 E15       30.02F WCI  28
6HR MIN TEMP:  37; 6HR MAX TEMP:  43; 6HR PCP:  0.20;

MIDDLETON      CLOUDY    38  38 100 E12G25    30.02F WCI  31
WATERTOWN      CLOUDY    37  37 100 NE9G17    30.04F WCI  31
MONROE         CLOUDY    39  37  93 NE22G29   29.95F WCI  29
JANESVILLE     CLOUDY    41  41 100 E20       29.99F
$$

WIZ051-052-058>065-066-070>072-300700-
SOUTHEAST WISCONSIN

CITY           SKY/WX    TMP DP  RH WIND       PRES   REMARKS
MILWAUKEE      CLOUDY    40  34  79 E21       30.05F WCI  30
6HR MIN TEMP:  38; 6HR MAX TEMP:  41; 6HR PCP:  0.11;

WAUKESHA       CLOUDY    36  34  93 NE10G18   30.07F WCI  28
MILWAUKEE/TIMM LGT RAIN  37  32  81 E10G20    30.08F WCI  30
RACINE         CLOUDY    39  35  86 E20G28    30.05F WCI  29
6HR MIN TEMP:  38; 6HR MAX TEMP:  41; 6HR PCP:  0.10;

KENOSHA        CLOUDY    39  36  89 E23       30.02F WCI  28
6HR MIN TEMP:  39; 6HR MAX TEMP:  42; 6HR PCP:  0.12;

FOND DU LAC    CLOUDY    38  32  79 NE10      30.08F WCI  31
6HR MIN TEMP:  38; 6HR MAX TEMP:  41; 6HR PCP: TRACE;

SHEBOYGAN      CLOUDY    39  33  79 E9        30.11F WCI  33
6HR MIN TEMP:  37; 6HR MAX TEMP:  39; 6HR PCP: TRACE;

WEST BEND      CLOUDY    37  37 100 E9        30.09F WCI  31
JUNEAU         CLOUDY    37  33  88 NE9G16    30.07F WCI  30
$$

LSZ147-162-300700-
LAKE SUPERIOR

STATION/POSITION TIME  TEMP    WIND        PRES    WAVE
                       AIR SEA DIR/SP/G            HT/PER
                 (UTC) (F)     (DEG/KT/KT) (MB)    (FT/S)
DEVILS ISLAND    0500   34      60/ 15/ 17 1022.2F
PORT WING        0530   34      60/  4/  8 1021.3S
SAXON HARBOR     0530   30     210/  1/  3 1020.7F
$$

LMZ867-665-643>646-300700-
LAKE MICHIGAN

STATION/POSITION TIME  TEMP    WIND        PRES    WAVE
                       AIR SEA DIR/SP/G            HT/PER
                 (UTC) (F)     (DEG/KT/KT) (MB)    (FT/S)
CHAMBERS ISLAND  0540   33      20/  6/  8 1021.3F
NORTHPORT PIER   0540   36     100/ 10/ 12 1021.7F
SISTER BAY       0506   37     130/  8/ 11   N/A
KEWAUNEE LAKESHO 0530   36      30/  7/ 11 1020.7F
SHEBOYGAN LAKESH 0500   38      50/ 12/ 12 1020.8F
PORT WASHINGTON  0530   40      90/ 13/ 17 1020.0F
MILWAUKEE LAKESH 0520   39      70/ 18/ 20   N/A
KENOSHA   LAKESH 0500   40      60/ 20/ 24 1017.9
$$

TC  - TEMPERATURE IN CELSIUS
VSB - VISIBILITY IN STATUTE MILES
WCI - WIND CHILL INDEX
HX  - HEAT INDEX





USA.gov is the U.S. government's official web portal to all federal, state and local government web resources and services.